STARLINK-11249, 60728

Orbit data source: Space-Track

STARLINK-11249, 60728 is a payload satellite owned by SpaceX/Seattle (US) in LEO that was launched on Wed, 28 Aug 2024 UTC via an FALCON 9 launch vehicle from the Air Force Eastern Test Range (AFETR). Payloads include a variety of satellites, spacecraft, and rockets equipped with specific instruments for various scientific and technological missions. These include communications satellites like Starlink; space stations such as the ISS; scientific satellites like the Hubble; Earth observation satellites from companies like Planet Labs, Umbra, and HawkEye 360; GPS; miniature CubeSats for education and research; and military/defense satellites.

Loading next visibility...
STARLINK-11249 details
Identifier
60728, 2024-152J
Orbit
LEO
Last TLE update22 hours ago
Origin
Flag of USSpaceX/Seattle (US)
ManufacturerSpaceX/Seattle
MissionOperational spacecraft
Bus & MotorSTARLINK V2M, Unknown motor
Mass730 kg wet, ~700 kg dry
Launch date (UTC)
2024-08-28 (4 months ago)
Launch vehicle
FALCON 9
Launch site
Air Force Eastern Test Range (AFETR)
Object type
Payload
Rocket body
Debris
Shape & HBRUnknown
Radar Cross SectionLarge (>1 m²)

Expand to show TLE details & history

TLE from 22 hours ago
0 STARLINK-11249
1 60728U 24152J   24355.70253139 -.00001094  00000-0 -41688-5 0  9994
2 60728  53.1599 144.8171 0001244 120.5386 239.5755 15.69719209 19127
Epoch: 2024-12-20T16:51Z
Definitive object data (Epoch: 2024-12-20T16:51:38.712Z)
Latitude0.00001°
Longitude162.14156°
Altitude361.04 km
Speed7.694 km/s
True Right ascension09h 39m 16s
True Declination0° 00' 00"
Sunlit
Object was in full shadow at TLE epoch
Visualization TLE readout
Latitude25.39527°
Longitude178.42988°
Altitude360.758 km
Speed7.696 km/s
Apparent Right ascension07h 10m 54s
Apparent Declination-16° 52' 51"
Sunlit
Object is in full shadow
Visualization observer readout
Local Sidereal Time13:25:31
Azimuth259.118° W
Elevation-13.48°
Doppler factor1
Orbital elements
Apogee altitude360.799 km
Perigee altitude359.123 km
Semi-major axis6,738.098 km
Eccentricity0.0001244
Inclination53.1599°
RAAN144.8171°
Arg. of periapsis120.5386°
True anomaly239.56321°
Mean anomaly239.5755°
Eccentric anomaly239.56935°
Mean motion3.92407 °/min
BSTAR-0.0000041688
Orbital period91.74 mins
Loading maneuver chart data...
Loading historical data...
Loading historical data...
Loading historical data...
Loading historical data...
Loading historical data...
Loading historical data...
Loading historical data...

STARLINK-11249 Visibility forecast

Observer location: undefined°, undefined

Span
Click to sort rows by Start time (UTC) header in descending order
Start Az.
Max El. time (UTC)
Max El. Az.
Max El.
End time (UTC)
End Az.
4 mins2024-12-21 19:20:24.655Z328.321° NNW2024-12-21 19:21:24.655Z359.922° N36.947°2024-12-21 19:24:24.655Z115.927° SE
|